sat.trackr.live / text

‹ back to catalog

STARLINK-6106

NORAD 57154 · 2023-090BF

PAYLOAD ACTIVE UNKNOWN

§ Identity

Operator
Country
US
Launch date
2023-06-23
Launch site
AFETR
Launch vehicle
Mass (kg)
RCS (m²)

Purposes: comms

External: N2YO · Heavens-Above · Gunter

§ Orbital elements

Epoch: 2026-09-20T10:14:59.605728Z

Period
94.27 min
Inclination
43.0021°
Eccentricity
0.0001313
Mean motion
15.27578789 rev/d
Perigee alt
482.2 km
Apogee alt
484.0 km
Semi-major
6,861.2 km
B*
5.5361e-5
RAAN
243.7575°
Arg perigee
267.4446°
Mean anomaly
92.6255°
Rev number
18,032

§ Raw data

STARLINK-61061 57154U 23090BF  26263.42707877  .00001262  00000+0  55361-4 0  99912 57154  43.0021 243.7575 0001313 267.4446  92.6255 15.27578789180320

JSON: /api/v1/satellites/57154 · /tle

For live sub-satellite position, see the globe view (requires WebGL).

§ Visibility from observer

Set your observer location to see the next 7 days of passes ≥ 10°. The values pass through the URL so the page stays shareable.

No JS? Fill the form by hand. The geolocation button needs JavaScript.